Historique des stations

Station météo de Etrechet

Altitude de la station : 156 m







Données météorologiques pour le 16/09/2021
Date
Heure
Températures Humidité Point de rosée Vitesse
du vent
Direction Rafales Windchill Pression Pluviométrie
Cumul
Date
Heure
Températures Humidité Point de rosée Vitesse
du vent
Direction Rafales Windchill Pression Pluviométrie
Cumul
16/09/2021 12:5619.6 °C88 %17.8 °C8 km/hNNE19 km/h19.4 1017 hPa-
16/09/2021 12:4119.2 °C91 %17.8 °C6 km/hNO19 km/h19.4 1017 hPa-
16/09/2021 12:2619.0 °C92 %17.8 °C5 km/hNO19 km/h18.9 1017 hPa-
16/09/2021 12:1019.0 °C91 %17.8 °C2 km/hONO19 km/h18.9 1017 hPa-
16/09/2021 11:5518.8 °C92 %17.8 °C6 km/hNE19 km/h18.9 1017 hPa-
16/09/2021 11:4018.8 °C92 %17.8 °C8 km/hNNE19 km/h18.9 1018 hPa-
16/09/2021 11:2418.7 °C93 %17.8 °C13 km/hNNE19 km/h18.3 1017 hPa-
16/09/2021 11:0919.0 °C94 %18.3 °C11 km/hNNE19 km/h18.3 1017 hPa-
16/09/2021 10:5318.7 °C94 %17.8 °C10 km/hNO18 km/h18.9 1017 hPa-
16/09/2021 10:3818.5 °C96 %17.8 °C13 km/hN14 km/h17.8 1017 hPa-
16/09/2021 10:2318.4 °C96 %17.8 °C11 km/hNO14 km/h17.8 1017 hPa-
16/09/2021 10:0618.2 °C97 %17.8 °C8 km/hNO14 km/h18.3 1017 hPa-
16/09/2021 09:5118.1 °C97 %17.8 °C-ONO14 km/h18.3 1016 hPa-
16/09/2021 09:3617.9 °C98 %17.8 °C-ONO14 km/h17.8 1016 hPa-
16/09/2021 09:2017.7 °C98 %17.2 °C-ONO14 km/h17.8 1016 hPa-
16/09/2021 09:0517.5 °C98 %17.2 °C5 km/hNO13 km/h17.8 1016 hPa-
16/09/2021 08:4917.4 °C98 %17.2 °C5 km/hONO13 km/h17.2 1016 hPa-
16/09/2021 08:3417.5 °C98 %17.2 °C8 km/hNNO13 km/h17.8 1016 hPa-
16/09/2021 08:1917.4 °C98 %17.2 °C3 km/hONO13 km/h17.2 1016 hPa-
16/09/2021 08:0317.3 °C98 %17.2 °C-ONO13 km/h17.2 1016 hPa-
16/09/2021 07:4817.3 °C98 %17.2 °C2 km/hONO13 km/h17.2 1016 hPa-
16/09/2021 07:3317.2 °C98 %17.2 °C-O13 km/h17.2 1016 hPa-
16/09/2021 07:1717.3 °C98 %17.2 °C-ONO13 km/h17.2 1016 hPa-
16/09/2021 07:0217.2 °C98 %16.7 °C-ONO13 km/h17.2 1016 hPa-
16/09/2021 06:5217.2 °C97 %16.7 °C-ONO13 km/h17.2 1016 hPa-
16/09/2021 06:3617.1 °C97 %16.7 °C2 km/hONO13 km/h17.2 1016 hPa-
16/09/2021 06:3317.1 °C97 %16.7 °C-ONO13 km/h17.2 1016 hPa-
16/09/2021 06:1716.9 °C97 %16.7 °C6 km/hONO13 km/h16.7 1015 hPa-
16/09/2021 06:0216.8 °C97 %16.7 °C6 km/hN13 km/h16.7 1015 hPa-
16/09/2021 05:4716.9 °C97 %16.7 °C5 km/hNO13 km/h16.7 1015 hPa-
16/09/2021 05:3116.9 °C97 %16.7 °C2 km/hONO13 km/h17.2 1015 hPa-
16/09/2021 05:1616.8 °C97 %16.7 °C6 km/hNO6 km/h16.7 1015 hPa-
16/09/2021 05:0116.7 °C97 %16.1 °C2 km/hO6 km/h16.7 1015 hPa-
16/09/2021 04:4516.4 °C96 %16.1 °C-O6 km/h16.7 1015 hPa-
16/09/2021 04:3016.6 °C96 %16.1 °C-O6 km/h16.7 1015 hPa-
16/09/2021 04:1416.6 °C96 %16.1 °C2 km/hO6 km/h16.7 1015 hPa-
16/09/2021 03:5916.8 °C96 %16.1 °C-SO6 km/h16.7 1015 hPa-
16/09/2021 03:4416.9 °C96 %16.1 °C-SO6 km/h17.2 1015 hPa-
16/09/2021 03:2817.1 °C96 %16.7 °C-SSO6 km/h17.2 1015 hPa-
16/09/2021 03:1317.2 °C96 %16.7 °C3 km/hS6 km/h17.2 1015 hPa-
16/09/2021 02:5817.2 °C96 %16.7 °C5 km/hSSO5 km/h17.2 1015 hPa-
16/09/2021 02:4217.6 °C95 %16.7 °C---17.8 1015 hPa-
16/09/2021 02:2717.8 °C95 %17.2 °C---17.8 1015 hPa-
16/09/2021 02:1218.3 °C94 %17.2 °C---18.3 1015 hPa-
16/09/2021 01:5618.3 °C94 %17.2 °C---18.3 1015 hPa-
16/09/2021 01:4118.4 °C94 %17.2 °C---18.3 1015 hPa-
16/09/2021 01:2518.4 °C94 %17.8 °C---18.3 1015 hPa-
16/09/2021 01:1018.6 °C94 %17.8 °C---18.3 1015 hPa-
16/09/2021 00:5518.6 °C93 %17.8 °C---18.9 1015 hPa-
16/09/2021 00:3918.6 °C93 %17.8 °C---18.9 1015 hPa-
16/09/2021 00:2418.6 °C94 %17.8 °C---18.3 1015 hPa-
16/09/2021 00:0918.7 °C94 %17.8 °C---18.9 1015 hPa-


Minima :

Température : 16.4 °C
Humidité : 88 %
Point de rosée : 16.1 °C
Vent moyen : 2 km/h
Windchill : 16.7
Pression atm. : 1015 hPa
Maxima :

Température : 19.6 °C
Humidité : 98 %
Point de rosée : 18.3 °C
Vent moyen : 13 km/h
Windchill : 19.4
Pression atm. : 1018 hPa
Rafales max : 19 km/h
Cumul de pluie sur 24H : 0 mm

Etrechet est une commune du département Indre (36).
La station météorologique du réseau de l'association la plus proche de Etrechet est celle de Saint-Maur



Icône Facebook Association Météo Centre Icône Twitter Association Météo Centre Icône Chaîne Youtube Association Météo Centre Icône contact Association Météo Centre Icône Insta Association Météo Centre